Weather History for Newark Heath, OH

Change the Weather History Date:

Monday, May 5, 2014

  Actual Average Record
Temperature  
Mean Temperature 50 °F -  
Max Temperature 57 °F 70 °F 92 °F (1952)
Min Temperature 42 °F 44 °F 28 °F (1940)
Degree Days  
Heating Degree Days 16    
Moisture  
Dew Point 34 °F    
Average Humidity 59    
Maximum Humidity 79    
Minimum Humidity 42    
Precipitation  
Precipitation 0.05 in - - ()
Sea Level Pressure  
Sea Level Pressure 30.00 in    
Wind  
Wind Speed 5 mph (ENE)    
Max Wind Speed 13 mph    
Max Gust Speed -    
Visibility 10 miles    
Events Rain    
Averages and records for this station are not official NWS values.
T = Trace of Precipitation, MM = Missing Value Source: NWS Daily Summary

Daily Weather History Graph

Daily Weather History Graph

Search for Another Location

Airport:

Trip Planner

Search our weather history database for the weather conditions in past years. The results will help you decide how hot, cold, wet, or windy it might be!

Date:

Astronomy

May. 05, 2014 Rise Set
Actual Time 6:25 AM EDT 8:28 PM EDT
Civil Twilight 5:55 AM EDT 8:58 PM EDT
Nautical Twilight 5:19 AM EDT 9:34 PM EDT
Astronomical Twilight 4:39 AM EDT 10:14 PM EDT
Moon 11:43 AM EDT (5/5) 1:12 AM EDT (5/5)
Length of Visible Light 15h 03m
Length of Day
14h 03m
Waxing Crescent, 36% of the Moon is Illuminated
May 5
Waxing Crescent
May 6
First Quarter
May 14
Full
May 21
Last Quarter
May 28
New

Hourly Weather History & Observations

Time (EDT) Temp. Windchill Dew Point Humidity Pressure Visibility Wind Dir Wind Speed Gust Speed Precip Events Conditions
12:54 AM 48.9 °F - 33.1 °F 54% 30.06 in 10.0 mi ENE 3.5 mph - N/A   Clear
1:54 AM 48.0 °F - 33.1 °F 56% 30.06 in 10.0 mi ENE 5.8 mph - N/A   Mostly Cloudy
2:54 AM 46.9 °F - 32.0 °F 56% 30.04 in 10.0 mi NE 5.8 mph - N/A   Overcast
3:54 AM 46.0 °F 43.9 °F 32.0 °F 58% 30.04 in 10.0 mi ENE 4.6 mph - N/A   Mostly Cloudy
4:54 AM 42.1 °F - 33.1 °F 70% 30.05 in 10.0 mi Calm Calm - N/A   Clear
5:54 AM 42.1 °F - 35.1 °F 76% 30.05 in 10.0 mi Calm Calm - N/A   Overcast
6:54 AM 42.1 °F - 36.0 °F 79% 30.07 in 10.0 mi Calm Calm - N/A   Scattered Clouds
7:54 AM 45.0 °F 42.6 °F 33.1 °F 63% 30.07 in 10.0 mi ENE 4.6 mph - N/A   Partly Cloudy
8:54 AM 46.0 °F 42.5 °F 34.0 °F 63% 30.06 in 10.0 mi East 6.9 mph - 0.00 in Rain Light Rain
9:54 AM 46.9 °F - 33.1 °F 59% 30.05 in 10.0 mi East 10.4 mph - 0.00 in   Overcast
10:54 AM 46.0 °F 43.1 °F 36.0 °F 68% 30.04 in 10.0 mi East 5.8 mph - 0.01 in Rain Light Rain
11:54 AM 46.0 °F 44.8 °F 37.0 °F 71% 30.06 in 10.0 mi ENE 3.5 mph - 0.03 in   Mostly Cloudy
12:54 PM 46.0 °F 41.9 °F 37.9 °F 73% 30.02 in 10.0 mi ENE 8.1 mph - 0.01 in Rain Light Rain
2:54 PM 54.0 °F - 35.1 °F 49% 29.98 in 10.0 mi East 10.4 mph - N/A   Partly Cloudy
3:54 PM 55.0 °F - 33.1 °F 43% 29.94 in 10.0 mi East 12.7 mph - N/A   Overcast
4:54 PM 57.0 °F - 34.0 °F 42% 29.94 in 10.0 mi ESE 10.4 mph - N/A   Mostly Cloudy
5:54 PM 55.9 °F - 35.1 °F 45% 29.92 in 10.0 mi East 9.2 mph - N/A   Clear
6:54 PM 55.0 °F - 35.1 °F 47% 29.91 in 10.0 mi ENE 8.1 mph - N/A   Clear
7:54 PM 54.0 °F - 36.0 °F 51% 29.91 in 10.0 mi ENE 5.8 mph - N/A   Clear
8:54 PM 52.0 °F - 35.1 °F 53% 29.91 in 10.0 mi Calm Calm - N/A   Clear
9:54 PM 51.1 °F - 34.0 °F 52% 29.92 in 10.0 mi Calm Calm - N/A   Clear
10:54 PM 48.0 °F - 34.0 °F 58% 29.93 in 10.0 mi NNE 3.5 mph - N/A   Clear
11:54 PM 46.9 °F - 35.1 °F 63% 29.93 in 10.0 mi Calm Calm - N/A   Clear